This demonstration page uses our WeatherBlox Daily Observations layout. Learn more.

Left ArrowRight Arrow

Hourly Observations for June 23, 2017

Temp ( °F °C ) Dew Point ( °F °C ) Humidity (%) Winds ( mph kmh ) Pressure ( in mb ) Visibility ( mi km ) Precip ( " mm )
12:52 am 00:52 Clear 74 23.3 72 22.2 94 94 S 6 9 29.70 1006 10 16 0.00 0.00
1:14 am 01:14 Mostly Clear 73 22.8 71 21.7 94 94 S 3 6 29.68 1005 10 16 0.00 0.00
1:52 am 01:52 Clear 72 22.2 71 21.7 97 97 SSE 6 9 29.71 1006 10 16 0.00 0.00
2:01 am 02:01 Partly Cloudy 73 22.8 71 21.7 94 94 SSE 6 9 29.68 1005 10 16 0.00 0.00
2:10 am 02:10 Mostly Cloudy 73 22.8 72 22.2 96 96 S 5 7 29.68 1005 10 16 0.00 0.00
2:42 am 02:42 Cloudy 73 22.8 72 22.2 96 96 Calm 29.71 1006 10 16 0.00 0.00
2:52 am 02:52 Cloudy 73 22.8 72 22.2 96 96 S 3 6 29.70 1006 10 16 0.00 0.00
3:52 am 03:52 Mostly Cloudy 73 22.8 72 22.2 96 96 S 3 6 29.68 1005 10 16 0.00 0.00
4:42 am 04:42 Mostly Clear 72 22.2 72 22.2 100 100 Calm 29.65 1004 10 16 0.00 0.00
4:52 am 04:52 Mostly Clear 72 22.2 71 21.7 97 97 Calm 29.66 1004 10 16 0.00 0.00
5:32 am 05:32 Mostly Clear with Mist and Fog 70 21.1 70 21.1 100 100 Calm 29.65 1004 2 3 0.00 0.00
5:45 am 05:45 Mostly Clear with Mist and Fog 71 21.7 70 21.1 96 96 SE 3 6 29.62 1003 3 5 0.00 0.00
5:52 am 05:52 Partly Cloudy with Mist and Fog 70 21.1 70 21.1 100 100 SE 3 6 29.66 1004 6 10 0.00 0.00
6:52 am 06:52 Partly Cloudy with Mist and Fog 72 22.2 71 21.7 97 97 Calm 29.69 1006 6 10 0.00 0.00
7:52 am 07:52 Partly Cloudy 76 24.4 73 22.8 91 91 WSW 5 7 29.73 1007 10 16 0.00 0.00
8:52 am 08:52 Mostly Sunny 79 26.1 74 23.3 85 85 WNW 7 11 29.73 1007 10 16 0.00 0.00
9:52 am 09:52 Cloudy 80 26.7 75 23.9 85 85 WNW 6 9 29.74 1007 10 16 0.00 0.00
10:41 am 10:41 Mostly Cloudy 82 27.8 74 23.3 77 77 NW 8 13 29.68 1005 10 16 0.00 0.00
10:52 am 10:52 Mostly Cloudy 82 27.8 74 23.3 77 77 NW 9 15 29.74 1007 10 16 0.00 0.00
11:52 am 11:52 Mostly Cloudy 80 26.7 74 23.3 82 82 WSW 6 9 29.74 1007 10 16 0.00 0.03
12:00 pm 12:00 Cloudy with Nearby Thunderstorms 80 26.7 75 23.9 85 85 WSW 10 17 29.74 1007 10 16 0.00 0.03
12:15 pm 12:15 Cloudy with Thunderstorms 77 25 75 23.9 94 94 W 18 30 29.77 1008 9 14 0.00 0.03
12:18 pm 12:18 Very Windy with Storms Likely 74 23.3 73 22.8 97 97 N 44 70 29.80 1009 2 3 0.00 0.03
12:20 pm 12:20 Very Windy with Storms Likely 71 21.7 70 21.1 96 96 N 40 65 29.80 1009 1 1 0.00 0.03
12:24 pm 12:24 Cloudy with Thunderstorms 68 20 66 18.9 93 93 NNW 15 24 29.80 1009 0 0 0.17 4.32
12:31 pm 12:31 Cloudy with Strong Thunderstorms 69 20.6 67 19.4 93 93 E 15 24 29.83 1010 0 0 0.90 22.86
12:33 pm 12:33 Cloudy with Strong Thunderstorms 69 20.6 67 19.4 93 93 ENE 14 22 29.83 1010 1 1 0.98 24.89
12:40 pm 12:40 Cloudy with Strong Thunderstorms 70 21.1 69 20.6 97 97 NNE 7 11 29.83 1010 1 2 1.11 28.19
12:50 pm 12:50 Cloudy with Thunderstorms 70 21 70 21 100 100 ENE 6 9 29.77 1008 3 4 1.17 29.72
12:52 pm 12:52 Cloudy with Thunderstorms 70 21.1 69 20.6 97 97 VRB 5 7 29.82 1010 3 5 1.17 29.72
1:02 pm 13:02 Cloudy with Strong Thunderstorms 70 21.1 69 20.6 97 97 W 7 11 29.88 1012 3 4 0.03 0.76
1:07 pm 13:07 Cloudy with Strong Thunderstorms 70 21.1 69 20.6 97 97 W 10 17 29.88 1012 2 3 0.05 1.27
1:13 pm 13:13 Cloudy with Strong Thunderstorms 68 20 68 20 100 100 VRB 3 6 29.83 1010 0 0 0.18 4.57
1:22 pm 13:22 Cloudy with Strong Thunderstorms 69 20.6 68 20 96 96 ENE 10 17 29.83 1010 1 1 0.70 17.78
1:27 pm 13:27 Cloudy with Thunderstorms 69 20.6 69 20.6 100 100 N 5 7 29.85 1011 2 3 0.72 18.29
1:34 pm 13:34 Cloudy with Thunderstorms 70 21.1 69 20.6 97 97 NNW 7 11 29.85 1011 6 10 0.73 18.54
1:45 pm 13:45 Cloudy with Nearby Thunderstorms 71 21.7 70 21.1 96 96 N 14 22 29.80 1009 7 11 0.74 18.80
1:49 pm 13:49 Cloudy with Light Rain 72 22 70 21 94 94 N 16 26 29.80 1009 6 10 0.74 18.80
1:52 pm 13:52 Cloudy with Light Rain 72 22.2 71 21.7 97 97 N 14 22 29.82 1010 7 11 0.74 18.80
2:04 pm 14:04 Cloudy with Light Rain 71 21.7 71 21.7 100 100 N 14 22 29.80 1009 8 13 0.00 0.03
2:52 pm 14:52 Cloudy 73 22.8 70 21.1 90 90 N 12 19 29.86 1011 10 16 0.00 0.03
3:52 pm 15:52 Mostly Cloudy 77 25 67 19.4 71 71 NNE 15 24 29.86 1011 10 16 0.00 0.00
4:52 pm 16:52 Sunny 80 26.7 63 17.2 56 56 N 17 28 29.87 1011 10 16 0.00 0.00
5:52 pm 17:52 Sunny 80 26.7 58 14.4 47 47 NE 15 24 29.89 1012 10 16 0.00 0.00
6:52 pm 18:52 Sunny 80 26.7 61 16.1 52 52 N 8 13 29.90 1013 10 16 0.00 0.00
7:52 pm 19:52 Sunny 76 24.4 62 16.7 62 62 NNW 8 13 29.91 1013 10 16 0.00 0.00
8:52 pm 20:52 Clear 70 21.1 60 15.6 71 71 NNW 7 11 29.94 1014 10 16 0.00 0.00
9:52 pm 21:52 Clear 67 19.4 59 15 76 76 N 8 13 29.97 1015 10 16 0.00 0.00
10:52 pm 22:52 Clear 68 20 57 13.9 68 68 N 9 15 29.99 1016 10 16 0.00 0.00
11:52 pm 23:52 Clear 65 18.3 57 13.9 76 76 NNW 7 11 30.02 1017 10 16 0.00 0.00

Powered by AerisWeather